Wind_Speed
12 10 6 3 7 6 8 3 5 6 4 2 5 4 4 6 5 6 1 2 3 3 7 10 11 15 18 18 17 19 20 19 20 22 22 21 20 17 15 16 16 16 14 12 12 11 12 15 14
10 7 3 5 7 8 2 3 6 7 3 5 5 4 5 3 4 3 3 5 4 4 8 8 14 14 17 16 17 19 21 22 22 23 25 25 23 20 16 17 18 16 15 15 15 13 14 14 15
7 6 11 4 6 8 5 4 5 3 6 7 4 4 1 0 4 3 4 4 5 6 7 10 14 13 14 18 19 21 21 22 23 25 27 25 23 23 23 19 20 17 15 14 15 15 14 16 16
3 5 7 9 9 1 7 9 7 6 5 8 6 5 2 4 4 5 5 4 5 7 9 13 14 15 17 20 22 21 23 24 25 25 27 27 27 25 24 23 18 18 17 15 16 14 15 15 17
4 8 10 9 8 4 7 10 9 8 7 4 6 3 3 3 7 6 4 6 7 9 11 12 18 19 19 22 21 23 24 26 26 28 28 29 30 28 26 25 21 18 17 19 18 19 15 16 16
11 6 10 12 4 3 7 7 8 8 7 3 5 5 4 5 6 5 6 6 8 9 14 13 14 17 19 22 23 25 26 26 28 31 33 34 33 29 27 26 24 20 19 18 17 17 18 17 15
14 8 14 12 11 9 4 6 8 7 8 8 4 5 2 7 8 9 8 10 10 12 11 10 13 16 19 21 22 23 25 28 31 33 32 28 29 26 25 26 24 21 18 16 18 18 21 17 17
11 9 16 12 12 11 3 4 6 9 8 3 6 5 5 8 8 10 6 5 4 7 9 12 14 13 14 14 21 22 25 26 29 30 29 24 23 21 22 24 22 20 20 17 16 19 19 20 19
8 11 12 12 13 12 6 11 4 5 10 8 9 9 5 7 6 7 7 6 6 9 11 13 13 13 14 16 16 21 22 23 22 19 18 21 14 13 13 17 22 24 22 19 15 19 20 21 20
13 12 16 8 12 14 19 11 15 7 9 12 11 9 11 9 8 8 8 7 8 9 11 12 11 16 18 14 15 16 16 18 15 14 14 16 13 13 16 16 17 20 22 19 17 18 19 20 17
15 15 14 15 16 19 21 15 12 13 13 11 11 12 12 11 11 11 9 7 7 9 10 11 12 17 17 12 14 12 16 12 11 11 10 11 13 14 14 14 17 21 20 17 15 14 15 16 18
15 18 19 18 14 13 9 8 10 14 14 3 7 7 13 15 14 11 8 5 6 9 10 10 11 16 16 13 10 13 12 10 10 9 7 6 5 9 14 17 15 20 21 19 16 15 17 18 18
15 18 16 16 14 10 5 10 9 12 10 10 9 11 15 15 13 10 7 4 5 8 9 9 13 13 12 11 9 10 10 8 9 10 7 7 5 5 6 10 15 20 19 18 15 13 15 18 19
15 12 15 14 13 7 8 5 4 9 4 11 12 14 15 15 13 10 7 4 5 7 7 9 10 10 9 9 10 10 9 8 8 7 6 7 5 3 1 5 10 15 16 14 15 14 15 17 17
14 15 14 14 12 6 6 10 9 10 6 11 15 14 15 15 13 11 7 4 3 5 6 9 9 9 9 10 9 9 8 9 8 7 8 7 5 3 3 8 9 12 17 17 14 15 17 18 18
13 14 15 12 9 6 6 9 9 10 10 15 16 17 16 16 15 11 8 5 2 3 5 8 8 8 10 10 10 8 8 9 9 8 7 8 7 5 3 7 12 13 14 15 15 16 17 17 17
16 15 18 10 11 5 11 13 8 11 12 16 16 18 18 17 15 13 10 6 1 2 4 6 7 8 10 9 9 10 10 9 7 6 7 8 9 9 7 7 11 13 14 14 18 17 18 18 18
16 13 12 13 9 9 12 14 14 17 17 16 17 18 20 19 18 14 12 7 2 1 3 6 6 9 11 10 11 11 9 8 7 7 10 8 8 8 9 9 11 13 14 15 16 19 18 17 17
14 12 14 12 7 10 16 15 15 18 21 16 17 19 21 20 17 15 13 8 4 1 2 4 6 9 11 8 10 12 11 8 6 6 10 11 11 7 10 11 13 13 13 13 16 17 18 18 18
15 17 17 11 10 9 15 17 19 17 17 16 16 18 20 19 19 17 14 9 5 2 1 3 5 8 10 8 11 10 9 9 11 14 8 8 6 8 10 13 14 14 15 14 15 16 16 17 18
19 18 15 12 12 12 16 18 12 9 10 13 13 15 18 22 22 20 16 12 7 3 3 1 4 7 10 12 10 12 10 9 10 17 24 19 5 5 9 12 13 14 13 14 17 17 16 19 20
20 16 15 14 12 12 4 14 14 10 11 11 13 14 17 21 22 21 18 14 9 6 5 2 3 7 8 12 9 11 7 4 6 10 15 15 15 8 8 12 15 16 15 16 20 19 20 20 22
17 13 13 15 12 12 16 8 10 6 9 7 6 13 15 20 23 23 20 15 11 9 6 3 2 5 7 10 11 10 9 9 4 5 11 18 12 14 12 11 13 15 17 19 22 22 20 22 26
15 8 10 8 11 12 15 10 9 3 4 5 5 1 11 18 22 21 19 15 13 10 8 4 3 5 5 7 10 12 14 14 11 2 4 12 13 11 9 11 15 14 16 20 22 20 24 27 22
17 13 9 10 9 11 2 6 10 10 8 9 9 6 9 19 24 24 22 18 15 13 10 6 4 4 5 6 7 10 12 15 15 9 6 9 10 12 14 14 15 14 16 20 21 25 25 29 25
20 18 11 10 11 10 6 6 4 2 6 7 6 5 10 21 25 25 22 18 15 14 12 8 5 5 5 6 6 8 11 11 13 14 16 14 12 15 15 15 19 19 17 22 23 23 25 24 24
14 16 17 15 13 8 11 5 11 7 7 4 3 6 14 22 24 24 22 18 16 15 13 10 7 6 6 5 6 7 10 11 13 14 15 16 20 17 13 17 23 19 19 21 22 22 22 19 20
20 16 10 10 14 13 8 7 7 3 5 4 6 9 16 22 24 23 21 18 17 15 14 11 8 6 7 6 6 6 8 8 10 10 12 11 12 16 16 14 16 15 17 19 20 21 21 19 15
13 16 14 13 13 12 9 6 5 4 3 3 7 13 19 23 25 25 22 19 18 17 14 12 10 8 8 7 6 7 7 8 9 10 12 14 15 18 15 15 12 13 16 22 18 17 17 14 17
22 22 21 11 16 10 10 10 3 5 1 3 9 16 22 24 24 23 22 20 20 18 16 13 11 9 9 8 7 7 8 8 9 10 12 12 16 18 18 17 19 19 15 15 16 18 20 17 17
Wind_Direction
135 138 156 205 237 238 250 162 335 278 217 123 141 212 290 320 308 332 26 218 215 198 238 282 286 277 275 279 286 292 288 286 287 292 295 294 295 294 286 284 275 266 249 239 252 254 222 224 214
147 145 213 263 254 240 167 31 308 358 95 168 184 199 240 302 225 250 257 223 222 258 275 263 290 295 273 276 273 275 276 278 277 283 286 288 290 295 293 278 270 261 248 239 236 233 232 232 214
151 217 266 251 256 265 330 358 317 347 188 205 214 257 283 151 179 178 197 194 233 262 273 283 299 275 268 273 276 278 281 278 276 277 278 280 281 285 286 290 266 253 248 241 235 234 237 225 220
169 227 235 253 253 57 296 321 318 278 212 224 252 244 187 186 166 196 205 240 260 277 277 281 277 275 277 276 277 278 278 278 276 275 277 278 279 276 273 276 271 248 238 229 238 233 227 235 224
226 256 263 251 262 287 286 300 294 261 239 215 227 273 279 240 216 220 239 275 275 279 280 287 288 284 274 278 279 281 278 276 275 275 276 278 278 274 270 262 265 246 238 232 227 224 233 221 233
241 270 253 255 251 278 309 314 278 255 253 153 232 265 279 214 206 229 256 273 281 283 291 291 290 287 277 277 278 280 280 279 279 279 280 279 277 272 263 260 251 243 237 237 227 226 229 223 215
252 258 268 290 280 285 1 329 262 276 261 234 245 258 317 219 216 249 266 282 286 296 300 295 293 286 291 285 280 280 279 280 282 283 281 275 272 263 255 252 245 238 234 241 236 223 220 223 214
255 273 268 260 275 298 357 290 283 259 273 142 195 255 256 213 245 253 247 247 272 301 302 299 299 292 287 286 288 286 287 287 285 282 277 270 269 264 252 244 238 226 228 231 241 219 222 224 215
241 259 259 267 278 291 291 280 215 256 242 225 217 249 244 220 255 205 222 255 284 302 305 302 299 290 295 294 291 296 294 292 292 283 280 273 273 256 253 245 228 224 230 235 234 220 217 220 214
226 249 261 283 291 286 292 278 291 230 225 232 235 233 241 239 202 215 237 264 288 303 304 300 294 304 307 301 294 301 298 302 302 286 274 271 259 251 241 234 231 228 228 229 232 222 219 219 210
225 252 276 273 274 292 288 285 264 254 262 252 247 229 218 209 208 221 239 259 284 302 313 301 301 313 310 297 295 296 293 301 304 309 298 277 267 249 243 242 240 233 227 226 230 230 222 208 200
240 249 261 271 291 291 277 268 249 244 269 312 235 229 207 209 211 218 228 257 294 309 315 311 309 313 309 309 301 289 310 295 311 296 300 296 284 273 262 239 227 219 217 220 215 204 211 204 186
229 263 261 270 271 255 257 245 270 268 283 246 236 213 213 212 210 210 212 248 301 321 316 320 316 315 315 315 296 299 301 302 296 294 286 290 278 296 278 225 219 202 207 208 203 201 204 188 186
246 260 271 263 253 218 236 237 246 292 253 235 224 221 217 210 207 206 212 237 297 318 321 321 322 314 310 315 311 313 305 307 309 303 281 275 285 279 256 209 200 181 174 186 191 193 189 180 182
252 257 244 237 223 229 240 245 255 286 232 240 233 226 216 209 206 209 214 221 297 318 320 332 330 316 316 321 313 307 303 312 295 295 286 266 259 269 185 157 160 166 176 176 176 175 172 176 178
230 238 252 194 203 172 219 272 266 288 229 237 232 226 214 209 205 206 208 209 287 319 318 342 330 328 322 313 316 308 293 313 306 286 268 257 259 256 215 171 166 165 168 165 170 172 173 178 181
228 249 232 239 200 195 216 279 286 296 261 262 243 227 218 209 203 204 204 208 242 310 327 344 334 341 349 329 327 320 325 324 317 308 288 264 250 249 237 201 178 169 168 166 165 171 172 177 179
231 224 244 257 191 228 256 259 272 278 261 261 255 235 222 212 208 203 199 197 194 291 323 354 336 346 351 347 344 336 340 330 332 314 307 278 259 248 231 200 180 172 166 169 164 163 169 178 180
264 256 256 255 272 263 276 286 287 283 276 259 257 230 221 213 205 198 194 193 191 269 298 315 330 347 356 359 353 359 360 6 2 347 330 321 237 238 207 191 187 175 174 167 166 162 169 171 172
232 242 249 254 267 281 288 285 293 291 271 264 248 227 217 206 197 194 192 190 186 209 237 309 335 349 7 355 351 8 19 42 48 41 32 17 166 190 187 186 177 171 180 168 170 166 168 171 171
229 240 248 259 293 270 264 274 291 288 248 250 244 232 214 205 196 192 190 188 178 188 195 301 356 27 30 32 5 35 41 63 74 63 54 55 112 161 184 179 169 172 175 184 178 175 174 167 170
233 222 257 258 268 281 346 293 294 273 268 234 232 222 212 201 196 190 185 184 177 175 175 123 34 62 38 45 27 27 39 43 60 62 52 56 65 120 137 171 180 182 185 193 179 174 165 169 166
241 236 233 254 267 283 266 254 292 266 279 268 244 213 208 198 191 187 183 179 173 169 169 148 80 68 57 42 36 37 28 15 36 74 76 53 59 84 94 135 157 163 172 180 176 169 160 165 155
225 206 227 245 256 252 258 260 279 283 311 296 268 87 196 189 187 183 179 175 173 169 165 154 115 87 70 50 39 44 46 46 37 70 69 63 69 82 92 122 138 146 155 164 161 156 156 160 150
220 211 225 220 220 250 152 251 257 307 299 298 293 301 186 179 179 178 177 179 176 174 171 160 135 105 84 60 48 49 50 44 23 37 69 100 66 68 72 112 141 137 135 146 154 151 152 158 152
201 207 232 227 244 251 158 256 227 330 311 290 298 295 171 173 176 177 179 180 178 175 174 167 135 124 103 78 61 60 60 42 43 79 94 92 61 63 70 106 128 129 134 145 148 151 159 164 152
185 219 226 255 268 272 274 208 254 255 248 223 214 148 162 169 173 176 178 180 179 176 178 172 152 136 117 96 78 74 71 67 72 75 74 83 74 67 81 106 120 120 106 133 141 147 151 169 165
221 202 202 224 242 239 240 237 260 255 12 97 174 157 165 168 170 175 179 180 178 176 175 175 163 144 134 115 96 87 84 72 78 79 70 78 86 71 71 113 128 115 118 130 134 152 146 152 158
189 222 214 251 225 232 246 257 93 280 20 3 160 165 168 173 176 175 179 181 177 175 176 172 166 155 143 129 112 99 99 85 82 77 76 72 91 103 79 101 103 98 130 126 123 135 143 149 162
201 213 206 221 213 244 275 263 120 262 273 264 166 170 175 173 178 179 176 179 179 178 180 178 171 163 154 142 136 116 107 106 97 88 93 87 93 103 95 88 91 95 123 153 142 132 131 141 135
Height
1538 1539 1541 1541 1537 1525 1516 1516 1518 1517 1521 1528 1529 1530 1529 1531 1531 1536 1538 1539 1540 1541 1542 1541 1541 1541 1540 1540 1538 1537 1536 1535 1533 1532 1531 1529 1529 1529 1528 1527 1527 1527 1528 1529 1529 1530 1532 1532 1534
1540 1540 1542 1536 1529 1519 1509 1515 1515 1516 1523 1528 1530 1531 1532 1528 1534 1536 1538 1538 1540 1540 1539 1540 1539 1539 1538 1537 1536 1536 1534 1532 1531 1530 1529 1527 1525 1525 1525 1525 1524 1524 1525 1526 1527 1528 1530 1530 1532
1540 1542 1538 1525 1518 1519 1518 1513 1515 1519 1524 1525 1526 1529 1530 1530 1534 1535 1536 1537 1538 1539 1538 1537 1536 1536 1535 1534 1532 1532 1530 1529 1528 1527 1526 1524 1522 1521 1520 1521 1520 1521 1522 1524 1525 1525 1527 1528 1529
1542 1543 1538 1527 1516 1516 1520 1515 1515 1517 1522 1524 1524 1526 1531 1532 1533 1534 1533 1534 1536 1537 1537 1535 1533 1532 1531 1530 1529 1528 1526 1525 1523 1522 1521 1520 1519 1518 1517 1517 1516 1516 1518 1521 1522 1523 1524 1526 1527
1542 1536 1525 1524 1518 1519 1518 1518 1518 1514 1515 1519 1526 1523 1530 1532 1531 1532 1532 1532 1534 1534 1533 1533 1530 1529 1527 1526 1525 1524 1521 1519 1518 1517 1516 1515 1513 1512 1512 1512 1513 1513 1515 1517 1519 1520 1522 1523 1525
1536 1533 1525 1518 1511 1515 1517 1518 1518 1515 1513 1520 1524 1524 1527 1530 1530 1530 1530 1530 1531 1530 1529 1529 1527 1525 1524 1522 1520 1519 1517 1515 1513 1511 1509 1508 1506 1506 1507 1507 1508 1510 1512 1513 1515 1518 1519 1520 1522
1534 1525 1521 1515 1516 1517 1515 1519 1517 1514 1513 1516 1523 1523 1526 1528 1528 1528 1528 1528 1527 1526 1526 1526 1524 1522 1519 1517 1516 1514 1512 1509 1507 1504 1502 1501 1499 1499 1500 1502 1503 1506 1508 1510 1512 1515 1516 1517 1520
1531 1528 1521 1517 1517 1515 1515 1517 1517 1516 1514 1517 1522 1518 1519 1525 1524 1526 1527 1528 1526 1525 1525 1523 1521 1519 1516 1514 1511 1509 1507 1503 1500 1497 1495 1494 1493 1493 1494 1496 1499 1502 1504 1507 1508 1511 1513 1515 1518
1531 1527 1519 1514 1515 1509 1510 1514 1515 1516 1515 1519 1520 1520 1521 1521 1521 1525 1526 1526 1525 1524 1523 1521 1518 1516 1511 1510 1507 1504 1501 1498 1494 1491 1490 1489 1490 1491 1491 1492 1494 1497 1501 1503 1505 1507 1510 1512 1514
1526 1520 1514 1511 1511 1510 1507 1509 1510 1515 1514 1516 1519 1519 1519 1519 1520 1524 1524 1523 1523 1522 1520 1517 1513 1510 1507 1506 1504 1501 1498 1493 1490 1488 1486 1485 1486 1486 1486 1488 1490 1493 1496 1500 1502 1504 1506 1509 1512
1519 1518 1512 1511 1510 1508 1506 1505 1509 1509 1505 1508 1511 1513 1517 1517 1518 1520 1521 1521 1520 1518 1517 1515 1510 1507 1505 1504 1502 1499 1495 1492 1489 1486 1484 1482 1480 1481 1481 1485 1487 1489 1493 1496 1499 1502 1505 1508 1510
1517 1514 1513 1510 1509 1508 1506 1505 1506 1507 1504 1508 1508 1510 1513 1513 1515 1517 1518 1518 1518 1516 1514 1511 1508 1505 1502 1500 1499 1496 1492 1491 1487 1486 1482 1481 1480 1479 1476 1477 1482 1485 1489 1492 1495 1501 1503 1504 1508
1511 1509 1508 1508 1507 1506 1506 1505 1504 1502 1504 1507 1506 1506 1508 1510 1513 1515 1515 1515 1514 1514 1511 1508 1505 1502 1500 1497 1496 1492 1489 1488 1485 1482 1480 1479 1478 1475 1473 1474 1476 1480 1484 1488 1493 1497 1500 1502 1507
1505 1505 1504 1504 1503 1504 1503 1500 1505 1498 1500 1504 1504 1503 1505 1508 1511 1512 1512 1512 1512 1511 1509 1506 1503 1501 1498 1495 1492 1489 1488 1485 1484 1480 1479 1478 1476 1474 1472 1473 1472 1476 1480 1487 1491 1496 1498 1502 1507
1503 1504 1500 1500 1499 1498 1501 1499 1499 1496 1498 1500 1501 1500 1501 1504 1508 1510 1510 1509 1509 1508 1507 1504 1501 1499 1496 1493 1490 1487 1486 1482 1482 1481 1479 1477 1475 1474 1473 1473 1474 1477 1480 1484 1489 1493 1497 1502 1506
1498 1496 1497 1485 1497 1498 1500 1500 1493 1493 1495 1494 1494 1496 1498 1501 1504 1506 1506 1506 1506 1505 1505 1502 1500 1498 1495 1491 1488 1486 1483 1481 1479 1477 1476 1475 1474 1473 1473 1473 1474 1476 1479 1483 1489 1493 1497 1501 1505
1488 1497 1487 1486 1489 1489 1494 1490 1485 1489 1491 1489 1489 1491 1494 1497 1500 1502 1503 1504 1503 1503 1503 1500 1498 1496 1493 1489 1487 1484 1481 1478 1477 1475 1474 1473 1472 1472 1472 1473 1474 1476 1479 1482 1487 1492 1495 1500 1504
1488 1489 1483 1490 1484 1488 1485 1484 1482 1484 1482 1484 1484 1486 1489 1492 1496 1499 1501 1501 1501 1501 1501 1498 1497 1495 1492 1490 1486 1483 1480 1478 1476 1473 1471 1470 1469 1469 1470 1472 1473 1475 1479 1482 1485 1490 1494 1499 1503
1476 1483 1485 1480 1481 1486 1482 1477 1477 1477 1476 1475 1477 1480 1484 1488 1493 1496 1498 1499 1499 1499 1499 1498 1497 1495 1491 1490 1487 1484 1480 1476 1475 1470 1467 1465 1465 1467 1468 1470 1473 1476 1479 1482 1485 1489 1494 1497 1501
1481 1482 1482 1477 1481 1484 1479 1475 1471 1470 1467 1468 1470 1474 1479 1484 1489 1493 1495 1496 1497 1499 1498 1498 1497 1495 1491 1490 1487 1484 1480 1478 1475 1471 1467 1463 1463 1465 1467 1469 1472 1476 1478 1482 1486 1489 1493 1497 1500
1477 1478 1478 1482 1478 1479 1476 1474 1462 1462 1462 1463 1467 1469 1473 1478 1484 1489 1492 1494 1496 1497 1498 1497 1496 1494 1491 1489 1488 1485 1482 1479 1478 1474 1470 1466 1465 1465 1467 1469 1473 1475 1479 1482 1485 1489 1492 1495 1499
1474 1470 1476 1478 1483 1486 1473 1484 1463 1456 1454 1454 1460 1464 1467 1473 1480 1484 1488 1492 1493 1496 1497 1497 1496 1494 1493 1491 1490 1487 1484 1483 1479 1477 1474 1471 1468 1466 1466 1468 1471 1474 1478 1480 1483 1488 1492 1496 1499
1467 1464 1472 1474 1478 1479 1474 1477 1460 1449 1455 1449 1449 1455 1462 1468 1475 1480 1485 1489 1492 1494 1496 1496 1496 1494 1493 1492 1490 1489 1486 1483 1481 1479 1476 1473 1472 1469 1468 1469 1470 1473 1475 1479 1483 1487 1492 1498 1501
1463 1470 1473 1475 1475 1486 1466 1467 1459 1450 1450 1446 1446 1452 1458 1465 1473 1479 1484 1487 1490 1493 1495 1496 1496 1495 1494 1494 1492 1489 1486 1484 1481 1478 1478 1477 1475 1473 1472 1472 1473 1475 1477 1480 1484 1489 1493 1498 1503
1461 1469 1480 1484 1480 1480 1462 1470 1456 1445 1444 1444 1445 1448 1456 1462 1469 1475 1481 1485 1488 1491 1494 1495 1495 1496 1495 1495 1493 1491 1489 1486 1482 1480 1479 1479 1478 1476 1474 1475 1475 1477 1479 1483 1487 1492 1496 1501 1506
1455 1457 1464 1484 1478 1465 1462 1470 1449 1440 1443 1446 1448 1449 1454 1460 1466 1472 1479 1484 1487 1490 1493 1494 1495 1496 1496 1496 1494 1493 1491 1491 1486 1484 1483 1483 1480 1480 1479 1479 1479 1481 1484 1486 1490 1495 1499 1503 1508
1446 1456 1448 1459 1454 1469 1455 1448 1442 1439 1438 1441 1446 1450 1454 1459 1465 1471 1477 1482 1485 1488 1491 1493 1494 1496 1496 1496 1495 1494 1493 1492 1491 1490 1488 1487 1484 1484 1484 1484 1485 1487 1488 1492 1494 1497 1502 1507 1512
1433 1443 1461 1456 1474 1476 1456 1455 1448 1439 1436 1439 1444 1449 1455 1458 1464 1470 1475 1480 1484 1487 1490 1492 1494 1495 1496 1496 1496 1495 1494 1494 1494 1494 1493 1491 1490 1488 1488 1488 1489 1492 1493 1495 1499 1502 1507 1510 1513
1435 1440 1442 1441 1443 1459 1466 1450 1431 1435 1435 1436 1439 1447 1453 1457 1462 1466 1473 1478 1482 1485 1488 1491 1492 1494 1495 1495 1496 1495 1496 1496 1496 1496 1496 1495 1494 1494 1493 1493 1494 1494 1497 1500 1502 1504 1508 1512 1515
1420 1429 1435 1445 1454 1449 1447 1443 1427 1431 1433 1436 1438 1444 1448 1453 1460 1466 1470 1475 1479 1483 1487 1489 1491 1493 1494 1495 1496 1496 1497 1498 1498 1499 1499 1499 1499 1498 1499 1497 1498 1498 1500 1503 1506 1509 1511 1514 1517